Location: Drouwen
(52.9559°N, 6.7974°E)
Time: 07:40:41
(UTC+00:00)

Cosmos 2227 Rocket - Pass Details

Date: 15 May 2026
Orbit: 837 x 844 km, 71.0° (Epoch: 5 June)

Event Time Altitude Azimuth Distance (km) Brightness Sun altitude
Exits shadow 22:55:54 17° 125° (SE) 1,995 3.8 -17.6°
Maximum altitude 22:57:45 20° 100° (E) 1,851 3.8 -17.7°
Drops below altitude 10° 23:01:45 10° 55° (NE) 2,474 5.0 -17.8°
Sets 23:04:47 0° 40° (NE) 3,414 6.0 -17.8°
